Weather in Votlany

Russia / Chuvash Republic     55°44′03″N   46°52′21″E
temp.,
°C
wind,
m/s
gust,
m/s
humid.,
%
clouds,
%
prec.,
mm/h
press.,
hPa
HPBL,
m
27 february, sat
sat2700:00−6sse2497100 2.0 996116
03:00−1wnw3899100 2.9 996370
06:00−8nne3496100 0.7 995123
09:00−11nne4794100 1.4 997262
12:00−11nne589198 0.1 998480
15:00−11n6109199 0.3 1002624
18:00−14n61191100 0.1 1004580
21:00−15n51193100 0.1 1007357
28 february, sun
sun2800:00−18nnw5109695 0.0 1008230
03:00−20nnw5109790 0.0 1010198
06:00−21nnw499728 0.0 1011163
09:00−19nnw589517 0.0 1011223
12:00−16nnw479378 0.0 1012277
15:00−13nnw489279 0.0 1014434
18:00−16nnw3497100 0.0 101570
21:00−17n339898 0.1 101827
1 march, mon
mon100:00−19nnw239992 0.0 101921
03:00−20nnw239957 0.0 102021
06:00−22nnw22990 0.0 102220
09:00−18nw12955 0.0 102375
12:00−14w228943 0.0 1023236
15:00−12w249160 0.0 1022311
18:00−15sw349672 0.0 102160
21:00−15sw479678 0.0 1019123
2 march, tue
tue200:00−12ssw51096100 0.0 1016223
03:00−10ssw61195100 0.1 1012268
06:00−8sw71394100 0.4 1007441
09:00−3sw71296100 1.2 1004545
12:000sw59100100 0.8 1002486
15:000wnw35100100 1.8 1001323
18:00−2w3798100 0.8 1000222
21:00−2nw51196100 1.3 1001436
3 march, wed
wed300:00−5nw5109594 0.1 1002235
03:00−6nw499672 0.1 1003210
06:00−6nw599585 0.1 1004293
09:00−6nw599591 0.3 1005355
12:00−4nw599399 0.1 1006497
15:00−2nnw698998 0.2 1007826
18:00−4nw4109699 0.1 1007401
21:00−5nw7139395 0.3 1010607